NDF27UM EDDW-ESSA

Flight info

Callsign NDF27UM
Flight time N/A
Altitude 35000
Route WSN1M WSN L23 HAM P605 GESKA N851 PELUP Z226 NILUG NILUG3M
Aircraft A320/M-SDE3FGHIRWY/LB1

Departure

Time 2026-04-30 15:05
Airport Bremen Airport (EDDW)

Arrival

Time N/A
Airport Stockholm-Arlanda Airport (ESSA)
Time Latitude Longitude Altitude Speed Heading
2026-04-30 15:03 53.04825 8.77468 21 ft 10 kts 197°
2026-04-30 15:03 53.04689 8.77470 21 ft 8 kts 160°
2026-04-30 15:04 53.04657 8.77508 19 ft 0 kts 85°
2026-04-30 15:04 53.04688 8.80306 404 ft 155 kts 94°
2026-04-30 15:05 53.04792 8.86417 2297 ft 207 kts 88°
2026-04-30 15:06 53.04933 8.91571 3737 ft 228 kts 89°
2026-04-30 15:06 53.05246 8.96841 5497 ft 234 kts 66°
2026-04-30 15:07 53.08018 8.99621 7198 ft 250 kts 13°
2026-04-30 15:07 53.11313 9.01790 8386 ft 267 kts 38°
2026-04-30 15:08 53.14414 9.05325 10050 ft 273 kts 37°
2026-04-30 15:08 53.19510 9.11025 11194 ft 326 kts 37°
2026-04-30 15:09 53.23398 9.15348 12341 ft 341 kts 37°
2026-04-30 15:09 53.27364 9.19757 13760 ft 347 kts 37°
2026-04-30 15:10 53.31413 9.24288 15052 ft 353 kts 37°
2026-04-30 15:11 53.39695 9.33578 17481 ft 363 kts 36°
2026-04-30 15:11 53.43371 9.39315 18609 ft 365 kts 56°
2026-04-30 15:12 53.47672 9.50059 20079 ft 373 kts 55°
2026-04-30 15:13 53.50753 9.57175 21022 ft 379 kts 53°
2026-04-30 15:14 53.57174 9.71562 22850 ft 389 kts 53°
2026-04-30 15:14 53.62046 9.82705 24121 ft 397 kts 53°
2026-04-30 15:16 53.70295 10.01753 25844 ft 408 kts 53°
2026-04-30 15:17 53.76797 10.16845 27131 ft 417 kts 53°
2026-04-30 15:18 53.85401 10.36954 28684 ft 427 kts 52°
2026-04-30 15:19 53.90049 10.47889 29424 ft 432 kts 53°